DECAYED

STARLINK-5115, 53989 (Decayed)

Orbit data source: Space-Track

STARLINK-5115, 53989 was a payload satellite owned by SpaceX/Seattle (US) in LEO that was launched on Wed, 05 Oct 2022 UTC via an FALCON 9 launch vehicle from the Air Force Western Test Range (AFWTR). Payload-class satellites include a variety of spacecraft equipped with specific instruments for various scientific and technological missions. These include communications satellites like Starlink; space stations such as the ISS; scientific satellites like the Hubble; Earth observation satellites from companies like Planet Labs, Umbra, and HawkEye 360; GPS; miniature CubeSats for education and research; and military/defense satellites.

Not visible in the next 10 days
Identifier
53989, 2022-125AB
Orbit
Decayed
Country
Flag of USUS
Related business
Manufacturer
SpaceX/Seattle
Mission
Decayed Commercial Communications
Bus & Motor
STARLINK, Unknown motor
Mass
305 kg wet, ~290 kg dry
Launch date (UTC)
2022-10-05 (4 years ago)
Launch vehicle
FALCON 9
Launch site
Air Force Western Test Range (AFWTR)
Object type
Payload
Rocket body
Debris
Shape & HBR
Box + 1 Pan, 10.1 m
Radar Cross Section
13.562 m², Large (>1 m²)

Expand to show TLE details & history
Last TLE update: 1 year ago

TLE from 1 year ago
0 STARLINK-5115
1 53989U 22125AB  24363.91151285  .08414335  12390-4  42754-3 0  9998
2 53989  53.1915 348.0635 0002387 161.3923 280.3064 16.42850950124059
Epoch: 2024-12-28T21:52Z
TLE epoch observation values (Epoch: 2024-12-28T21:52:34.710Z)
Latitude
52.54951°
Longitude
-1.68227°
Altitude
164.301 km
Speed
7.814 km/s
True Right ascension
04h 17m 16s
True Declination
52° 22' 06"
Sunlit
Object was in full shadow at epoch
Visualization orbit readout
Latitude
Unknown
Longitude
Unknown
Altitude
Unknown
Speed
Unknown
Apparent Right ascension
Unknown
Apparent Declination
Unknown
Sunlit
N/A
Visualization observer readout
Local Sidereal Time
21:31:29
Azimuth
Unknown
Elevation
Unknown
Doppler factor
Unknown
Orbital elements
Apogee altitude
160.053 km
Perigee altitude
156.932 km
Semi-major axis
6,536.63 km
Eccentricity
0.00024
Inclination
53.1915°
RAAN
348.0635°
Arg. of periapsis
161.3923°
True anomaly
280.27949°
Mean anomaly
280.3064°
Eccentric anomaly
280.29294°
Mean motion
4.10688 °/min
Orbital period
87.66 mins
BSTAR
0.00042754
Loading maneuver chart data...
Computing Atmospheric mass density...
Loading historical data...
Loading historical data...
Loading historical data...
Loading historical data...
Loading historical data...
Loading historical data...
Loading historical data...

Documentation

Showing up to 5 results
|